THOR ABLESTAR DEB, 656

Orbit data source: Space-Track

THOR ABLESTAR DEB, 656 is space debris in LEO originally from a launch on Thu, 29 Jun 1961 UTC launched from the Air Force Eastern Test Range (AFETR). Debris objects in space refer to the collection of defunct objects orbiting the Earth. Examples of debris include non-operational satellites, rocket bodies, and fragments generated from explosions, collisions, or faulty payload assembly.

Loading next visibility...
THOR ABLESTAR DEB details
Identifier
656, 1961-015HH
Orbit
LEO
Last TLE update11 hours ago
Origin
Flag of USUSAF SSD (US)
ManufacturerUnknown
MissionSpacecraft
Bus & MotorUnknown
MassUnknown
Launch date (UTC)
1961-06-29 (64 years ago)
Launch vehicleUnknown
Launch site
Air Force Eastern Test Range (AFETR)
Object type
Payload
Rocket body
Debris
Shape & HBRUnknown
Radar Cross SectionSmall (<0.1 m²)

Expand to show TLE details & history

TLE from 11 hours ago
0 THOR ABLESTAR DEB
1 00656U 61015HH  25014.84686257  .00000929  00000-0  19737-2 0  9997
2 00656  66.2874 182.6411 0666062  15.1622 346.8327 12.71663133901059
Epoch: 2025-01-14T20:19Z
Definitive object data (Epoch: 2025-01-14T20:19:28.926Z)
Latitude-0.00008°
Longitude123.22285°
Altitude876.177 km
Speed7.65 km/s
True Right ascension12h 10m 33s
True Declination0° 00' 00"
Sunlit
Object was in daylight at TLE epoch
Visualization TLE readout
Latitude-46.59976°
Longitude-30.1485°
Altitude1,789.581 km
Speed6.805 km/s
Apparent Right ascension23h 05m 04s
Apparent Declination-54° 20' 47"
Sunlit
Object is in daylight
Visualization observer readout
Local Sidereal Time07:39:09
Azimuth229.443° WSW
Elevation-53.113°
Doppler factor1
Orbital elements
Apogee altitude1,890.026 km
Perigee altitude857.385 km
Semi-major axis7,751.842 km
Eccentricity0.0666062
Inclination66.2874°
RAAN182.6411°
Arg. of periapsis15.1622°
True anomaly344.94162°
Mean anomaly346.8327°
Eccentric anomaly345.90321°
Mean motion3.18006 °/min
BSTAR0.0019737
Orbital period113.21 mins
Loading maneuver chart data...

THOR ABLESTAR DEB Visibility forecast

Observer location: undefined°, undefined

Span
Click to sort rows by Start time (UTC) header in descending order
Start Az.
Max El. time (UTC)
Max El. Az.
Max El.
End time (UTC)
End Az.
8 mins2025-01-15 11:32:41.292Z150.857° SSE2025-01-15 11:36:41.292Z98.662° ESE21.692°2025-01-15 11:40:41.292Z55.999° ENE
9 mins2025-01-15 13:28:41.292Z243.727° WSW2025-01-15 13:32:41.292Z321.423° NNW35.603°2025-01-15 13:37:41.292Z18.413° NNE
10 mins2025-01-15 19:28:41.292Z3.829° NNE2025-01-15 19:32:41.292Z37.966° NE19.845°2025-01-15 19:38:41.292Z80.439° E
17 mins2025-01-15 21:23:41.292Z335.752° NNW2025-01-15 21:30:41.292Z49.926° ENE43.505°2025-01-15 21:40:41.292Z142.157° SSE
14 mins2025-01-15 23:21:41.292Z300.396° NW2025-01-15 23:27:41.292Z249.785° W26.911°2025-01-15 23:35:41.292Z199.248° SSW
|